User: anonymous   Login
Location: Trois-Rivi�res
(46.3500°N, 72.5500°W)
Time: 19:27:24
(UTC-05:00)
Language:

Cosmos 1975 - Orbit

View from above orbital plane
View from above orbital plane
View from above satellite
View from above satellite

Ground track
Ground track

The orbit data is extracted from the following two-line orbital elements,

1 19573U 88093A   16040.83297709  .00001811  00000-0  13079-3 0  9993
2 19573  82.5201 102.5744 0014907 171.5963 188.5516 15.03433226485663
Epoch (UTC): 09 February 2016 19:59:29
Eccentricity: 0.0014907
inclination: 82.5201°
perigee height: 546 km
apogee height: 566 km
right ascension of ascending node: 102.5744°
argument of perigee: 171.5963°
revolutions per day: 15.03433226
mean anomaly at epoch: 188.5516°
orbit number at epoch: 48566

The dashed part of the orbit path shows where the satellite is in the earth's shadow,  

DLR